Location: Unspecified
(0.0000°N, 0.0000°E)
Time: 08:11:14
(UTC+00:00)

Vanguard 1 Rocket - Pass Details

Date: 02 December 2022
Orbit: 650 x 4225 km, 34.3° (Epoch: 28 January)

Event Time Altitude Azimuth Distance (km) Brightness Sun altitude
Rises 22:43:14 0° 226° (SW) 7,648 12.5 -62.7°
Reaches altitude 10° 22:49:34 10° 220° (SW) 6,099 11.8 -63.5°
Enters shadow 22:58:57 31° 201° (SSW) 3,683 10.5 -64.7°
